Location: Newark
(47.3150°N, 5.1150°E)
Time: 06:31:37
(UTC+00:00)

O/OREOS (USA 219) - Pass Details

Date: 19 December 2019
Orbit: 621 x 646 km, 72.0° (Epoch: 22 May)

Event Time Altitude Azimuth Distance (km) Brightness Sun altitude
Exits shadow 04:04:13 25° 51° (NE) 1,315 ? -32.4°
Drops below altitude 10° 04:07:57 10° 107° (ESE) 2,027 ? -31.7°
Sets 04:10:34 0° 121° (ESE) 2,927 ? -31.3°
